Location: San Gennaro Vesuviano
(40.8833°N, 14.5333°E)
Time: 22:16:37
(UTC+00:00)

SL-16 R/B - Pass Details

Date: 22 April 2021
Orbit: 840 x 849 km, 71.0° (Epoch: 10 May)

Event Time Altitude Azimuth Distance (km) Brightness Sun altitude
Rises 21:18:10 0° 326° (NW) 3,417 6.5 -31.6°
Reaches altitude 10° 21:20:52 10° 316° (NW) 2,476 5.4 -31.9°
Enters shadow 21:25:18 30° 266° (W) 1,465 3.5 -32.3°
